User: anonymous   Login
Location: Kelowna
(49.8880°N, 119.4960°W)
Time: 17:49:24
(UTC-07:00)
Language:

SO-50 - Orbit

View from above orbital plane
View from above orbital plane
View from above satellite
View from above satellite

Ground track
Ground track

The orbit data is extracted from the following two-line orbital elements,

1 27607U 02058C   24114.15542088  .00004345  00000-0  60464-3 0  9991
2 27607  64.5577  30.6640 0031388 139.2732 221.0727 14.78687329148185
Epoch (UTC): 23 April 2024 03:43:48
Eccentricity: 0.0031388
inclination: 64.5577°
perigee height: 611 km
apogee height: 655 km
right ascension of ascending node: 30.6640°
argument of perigee: 139.2732°
revolutions per day: 14.78687329
mean anomaly at epoch: 221.0727°
orbit number at epoch: 14818

The dashed part of the orbit path shows where the satellite is in the earth's shadow,  

DLR